Retour au catalogue

TITAN 3C TRANSTAGE DEB

LostHEO
NORAD 28814·DEBRIS·🇺🇸 United States

Lancé Dec 21, 1965 depuis Cape Canaveral Space Force Station

Loading…

Prochains Passages (prochaines 24 heures)

TLE

PériméSource: Space-Track

Époque: Dec 17, 2025, 08:37 UTC

1 28814U 65108CB  25351.35967090 -.00000157  00000-0  12086-2 0  9991
2 28814  26.7682  74.9125 6771312 217.6919  80.4192  2.60083678126458

Suivez TITAN 3C TRANSTAGE DEB en temps réel avec AllMySat

Download on the App Store